Aviation Digital Data Service (ADDS)

Output produced by METARs form (1752 UTC 24 March 2017)
found at http://www.aviationweather.gov/adds/metars/
 
ORBD 241655Z 04004KT 9999 SCT190 15/12 A2991 RMK SLP131 WND DATA/ALSTG/SLP ESTMD
TAF AMD ORBD 2414/2517 30009KT 9000 HZ VCSH BKN030 BKN150 QNH2983INS WND 240V320 
     TEMPO 2411/2416 05010G15KT 5000 -SHRA VCTS OVC020CB WND 330V090 
     BECMG 2415/2416 VRB06KT 8000 HZ SCT060 BKN120 QNH2987INS 
     BECMG 2418/2419 VRB04KT 4000 BR SCT000 QNH2994INS BR SCT000 
     TEMPO 2500/2508 1200 BR BKN000 BR BKN000 
     BECMG 2507/2708 30008KT 8000 HZ SCT030 QNH2988INS TX17/2412Z TN14/2504Z LIMITED METWATCH 2418 TIL 2503 COR 241520
       
ORBI 241730Z 28005KT 9999 FEW030 17/10 Q1013
TAF ORBI 241600Z 2418/2518 32006KT 8000 NSC 
       
ORER 241700Z 07006KT 9999 SCT040 14/06 Q1016 NOSIG
TAF ORER 241600Z 2418/2518 14006KT 8000 -SHRA SCT030 BKN080 
       
ORMM 241700Z 080010KT 9999 FEW035 BKN100 17/16 Q1011 NOSIG
TAF ORMM 241600Z 2418/2518 03910KT 6000 TSRA FEW030 SCT035 BKN040 
     BECMG 2423/2501 2000 SCT030 BKN040
       
ORNI 241700Z 33010KT 8000 FEW040 20/09 Q1012 NOSIG
TAF ORNI 241600Z 2418/2518 30008KT 8000 SCT030 
       
ORSU 241700Z 10008KT 8000 SCT045 SCT080 10/07 Q1017
TAF ORSU 241700Z 2418/2518 12008KT 8000 SCT045 
     TEMPO 2500/2506 06010KT 5000 BR NSC 
     BECMG 2506/2506 08014KT 9999 SCT045 
     BECMG 2514/2516 32006KT
       
ORBD 241655Z 04004KT 9999 SCT190 15/12 A2991 RMK SLP131 WND DATA/ALSTG/SLP ESTMD
TAF AMD ORBD 2414/2517 30009KT 9000 HZ VCSH BKN030 BKN150 QNH2983INS WND 240V320 
     TEMPO 2411/2416 05010G15KT 5000 -SHRA VCTS OVC020CB WND 330V090 
     BECMG 2415/2416 VRB06KT 8000 HZ SCT060 BKN120 QNH2987INS 
     BECMG 2418/2419 VRB04KT 4000 BR SCT000 QNH2994INS BR SCT000 
     TEMPO 2500/2508 1200 BR BKN000 BR BKN000 
     BECMG 2507/2708 30008KT 8000 HZ SCT030 QNH2988INS TX17/2412Z TN14/2504Z LIMITED METWATCH 2418 TIL 2503 COR 241520
       
ORBI 241730Z 28005KT 9999 FEW030 17/10 Q1013
TAF ORBI 241600Z 2418/2518 32006KT 8000 NSC 
       
ORER 241700Z 07006KT 9999 SCT040 14/06 Q1016 NOSIG
TAF ORER 241600Z 2418/2518 14006KT 8000 -SHRA SCT030 BKN080 
       
ORMM 241700Z 080010KT 9999 FEW035 BKN100 17/16 Q1011 NOSIG
TAF ORMM 241600Z 2418/2518 03910KT 6000 TSRA FEW030 SCT035 BKN040 
     BECMG 2423/2501 2000 SCT030 BKN040
       
ORNI 241700Z 33010KT 8000 FEW040 20/09 Q1012 NOSIG
TAF ORNI 241600Z 2418/2518 30008KT 8000 SCT030 
       
ORSU 241700Z 10008KT 8000 SCT045 SCT080 10/07 Q1017
TAF ORSU 241700Z 2418/2518 12008KT 8000 SCT045 
     TEMPO 2500/2506 06010KT 5000 BR NSC 
     BECMG 2506/2506 08014KT 9999 SCT045 
     BECMG 2514/2516 32006KT
       
ORBD 241655Z 04004KT 9999 SCT190 15/12 A2991 RMK SLP131 WND DATA/ALSTG/SLP ESTMD
TAF AMD ORBD 2414/2517 30009KT 9000 HZ VCSH BKN030 BKN150 QNH2983INS WND 240V320 
     TEMPO 2411/2416 05010G15KT 5000 -SHRA VCTS OVC020CB WND 330V090 
     BECMG 2415/2416 VRB06KT 8000 HZ SCT060 BKN120 QNH2987INS 
     BECMG 2418/2419 VRB04KT 4000 BR SCT000 QNH2994INS BR SCT000 
     TEMPO 2500/2508 1200 BR BKN000 BR BKN000 
     BECMG 2507/2708 30008KT 8000 HZ SCT030 QNH2988INS TX17/2412Z TN14/2504Z LIMITED METWATCH 2418 TIL 2503 COR 241520
       
ORBI 241730Z 28005KT 9999 FEW030 17/10 Q1013
TAF ORBI 241600Z 2418/2518 32006KT 8000 NSC 
       
ORER 241700Z 07006KT 9999 SCT040 14/06 Q1016 NOSIG
TAF ORER 241600Z 2418/2518 14006KT 8000 -SHRA SCT030 BKN080 
       
ORMM 241700Z 080010KT 9999 FEW035 BKN100 17/16 Q1011 NOSIG
TAF ORMM 241600Z 2418/2518 03910KT 6000 TSRA FEW030 SCT035 BKN040 
     BECMG 2423/2501 2000 SCT030 BKN040
       
ORNI 241700Z 33010KT 8000 FEW040 20/09 Q1012 NOSIG
TAF ORNI 241600Z 2418/2518 30008KT 8000 SCT030 
       
ORSU 241700Z 10008KT 8000 SCT045 SCT080 10/07 Q1017
TAF ORSU 241700Z 2418/2518 12008KT 8000 SCT045 
     TEMPO 2500/2506 06010KT 5000 BR NSC 
     BECMG 2506/2506 08014KT 9999 SCT045 
     BECMG 2514/2516 32006KT
       
ORBD 241655Z 04004KT 9999 SCT190 15/12 A2991 RMK SLP131 WND DATA/ALSTG/SLP ESTMD
TAF AMD ORBD 2414/2517 30009KT 9000 HZ VCSH BKN030 BKN150 QNH2983INS WND 240V320 
     TEMPO 2411/2416 05010G15KT 5000 -SHRA VCTS OVC020CB WND 330V090 
     BECMG 2415/2416 VRB06KT 8000 HZ SCT060 BKN120 QNH2987INS 
     BECMG 2418/2419 VRB04KT 4000 BR SCT000 QNH2994INS BR SCT000 
     TEMPO 2500/2508 1200 BR BKN000 BR BKN000 
     BECMG 2507/2708 30008KT 8000 HZ SCT030 QNH2988INS TX17/2412Z TN14/2504Z LIMITED METWATCH 2418 TIL 2503 COR 241520
       
ORBI 241730Z 28005KT 9999 FEW030 17/10 Q1013
TAF ORBI 241600Z 2418/2518 32006KT 8000 NSC 
       
ORER 241700Z 07006KT 9999 SCT040 14/06 Q1016 NOSIG
TAF ORER 241600Z 2418/2518 14006KT 8000 -SHRA SCT030 BKN080 
       
ORMM 241700Z 080010KT 9999 FEW035 BKN100 17/16 Q1011 NOSIG
TAF ORMM 241600Z 2418/2518 03910KT 6000 TSRA FEW030 SCT035 BKN040 
     BECMG 2423/2501 2000 SCT030 BKN040
       
ORNI 241700Z 33010KT 8000 FEW040 20/09 Q1012 NOSIG
TAF ORNI 241600Z 2418/2518 30008KT 8000 SCT030 
       
ORSU 241700Z 10008KT 8000 SCT045 SCT080 10/07 Q1017
TAF ORSU 241700Z 2418/2518 12008KT 8000 SCT045 
     TEMPO 2500/2506 06010KT 5000 BR NSC 
     BECMG 2506/2506 08014KT 9999 SCT045 
     BECMG 2514/2516 32006KT
       
ORBD 241655Z 04004KT 9999 SCT190 15/12 A2991 RMK SLP131 WND DATA/ALSTG/SLP ESTMD
TAF AMD ORBD 2414/2517 30009KT 9000 HZ VCSH BKN030 BKN150 QNH2983INS WND 240V320 
     TEMPO 2411/2416 05010G15KT 5000 -SHRA VCTS OVC020CB WND 330V090 
     BECMG 2415/2416 VRB06KT 8000 HZ SCT060 BKN120 QNH2987INS 
     BECMG 2418/2419 VRB04KT 4000 BR SCT000 QNH2994INS BR SCT000 
     TEMPO 2500/2508 1200 BR BKN000 BR BKN000 
     BECMG 2507/2708 30008KT 8000 HZ SCT030 QNH2988INS TX17/2412Z TN14/2504Z LIMITED METWATCH 2418 TIL 2503 COR 241520
       
ORBI 241730Z 28005KT 9999 FEW030 17/10 Q1013
TAF ORBI 241600Z 2418/2518 32006KT 8000 NSC 
       
ORER 241700Z 07006KT 9999 SCT040 14/06 Q1016 NOSIG
TAF ORER 241600Z 2418/2518 14006KT 8000 -SHRA SCT030 BKN080 
       
ORMM 241700Z 080010KT 9999 FEW035 BKN100 17/16 Q1011 NOSIG
TAF ORMM 241600Z 2418/2518 03910KT 6000 TSRA FEW030 SCT035 BKN040 
     BECMG 2423/2501 2000 SCT030 BKN040
       
ORNI 241700Z 33010KT 8000 FEW040 20/09 Q1012 NOSIG
TAF ORNI 241600Z 2418/2518 30008KT 8000 SCT030 
       
ORSU 241700Z 10008KT 8000 SCT045 SCT080 10/07 Q1017
TAF ORSU 241700Z 2418/2518 12008KT 8000 SCT045 
     TEMPO 2500/2506 06010KT 5000 BR NSC 
     BECMG 2506/2506 08014KT 9999 SCT045 
     BECMG 2514/2516 32006KT
       
ORMM 241700Z 080010KT 9999 FEW035 BKN100 17/16 Q1011 NOSIG
TAF ORMM 241600Z 2418/2518 03910KT 6000 TSRA FEW030 SCT035 BKN040 
     BECMG 2423/2501 2000 SCT030 BKN040
       
ORBD 241655Z 04004KT 9999 SCT190 15/12 A2991 RMK SLP131 WND DATA/ALSTG/SLP ESTMD
TAF AMD ORBD 2414/2517 30009KT 9000 HZ VCSH BKN030 BKN150 QNH2983INS WND 240V320 
     TEMPO 2411/2416 05010G15KT 5000 -SHRA VCTS OVC020CB WND 330V090 
     BECMG 2415/2416 VRB06KT 8000 HZ SCT060 BKN120 QNH2987INS 
     BECMG 2418/2419 VRB04KT 4000 BR SCT000 QNH2994INS BR SCT000 
     TEMPO 2500/2508 1200 BR BKN000 BR BKN000 
     BECMG 2507/2708 30008KT 8000 HZ SCT030 QNH2988INS TX17/2412Z TN14/2504Z LIMITED METWATCH 2418 TIL 2503 COR 241520
       
ORBI 241730Z 28005KT 9999 FEW030 17/10 Q1013
TAF ORBI 241600Z 2418/2518 32006KT 8000 NSC 
       
ORER 241700Z 07006KT 9999 SCT040 14/06 Q1016 NOSIG
TAF ORER 241600Z 2418/2518 14006KT 8000 -SHRA SCT030 BKN080 
       
ORMM 241700Z 080010KT 9999 FEW035 BKN100 17/16 Q1011 NOSIG
TAF ORMM 241600Z 2418/2518 03910KT 6000 TSRA FEW030 SCT035 BKN040 
     BECMG 2423/2501 2000 SCT030 BKN040
       
ORNI 241700Z 33010KT 8000 FEW040 20/09 Q1012 NOSIG
TAF ORNI 241600Z 2418/2518 30008KT 8000 SCT030 
       
ORSU 241700Z 10008KT 8000 SCT045 SCT080 10/07 Q1017
TAF ORSU 241700Z 2418/2518 12008KT 8000 SCT045 
     TEMPO 2500/2506 06010KT 5000 BR NSC 
     BECMG 2506/2506 08014KT 9999 SCT045 
     BECMG 2514/2516 32006KT
       
ORBD 241655Z 04004KT 9999 SCT190 15/12 A2991 RMK SLP131 WND DATA/ALSTG/SLP ESTMD
TAF AMD ORBD 2414/2517 30009KT 9000 HZ VCSH BKN030 BKN150 QNH2983INS WND 240V320 
     TEMPO 2411/2416 05010G15KT 5000 -SHRA VCTS OVC020CB WND 330V090 
     BECMG 2415/2416 VRB06KT 8000 HZ SCT060 BKN120 QNH2987INS 
     BECMG 2418/2419 VRB04KT 4000 BR SCT000 QNH2994INS BR SCT000 
     TEMPO 2500/2508 1200 BR BKN000 BR BKN000 
     BECMG 2507/2708 30008KT 8000 HZ SCT030 QNH2988INS TX17/2412Z TN14/2504Z LIMITED METWATCH 2418 TIL 2503 COR 241520
       
ORBI 241730Z 28005KT 9999 FEW030 17/10 Q1013
TAF ORBI 241600Z 2418/2518 32006KT 8000 NSC 
       
ORER 241700Z 07006KT 9999 SCT040 14/06 Q1016 NOSIG
TAF ORER 241600Z 2418/2518 14006KT 8000 -SHRA SCT030 BKN080 
       
ORMM 241700Z 080010KT 9999 FEW035 BKN100 17/16 Q1011 NOSIG
TAF ORMM 241600Z 2418/2518 03910KT 6000 TSRA FEW030 SCT035 BKN040 
     BECMG 2423/2501 2000 SCT030 BKN040
       
ORNI 241700Z 33010KT 8000 FEW040 20/09 Q1012 NOSIG
TAF ORNI 241600Z 2418/2518 30008KT 8000 SCT030 
       
ORSU 241700Z 10008KT 8000 SCT045 SCT080 10/07 Q1017
TAF ORSU 241700Z 2418/2518 12008KT 8000 SCT045 
     TEMPO 2500/2506 06010KT 5000 BR NSC 
     BECMG 2506/2506 08014KT 9999 SCT045 
     BECMG 2514/2516 32006KT
       
ORBD 241655Z 04004KT 9999 SCT190 15/12 A2991 RMK SLP131 WND DATA/ALSTG/SLP ESTMD
TAF AMD ORBD 2414/2517 30009KT 9000 HZ VCSH BKN030 BKN150 QNH2983INS WND 240V320 
     TEMPO 2411/2416 05010G15KT 5000 -SHRA VCTS OVC020CB WND 330V090 
     BECMG 2415/2416 VRB06KT 8000 HZ SCT060 BKN120 QNH2987INS 
     BECMG 2418/2419 VRB04KT 4000 BR SCT000 QNH2994INS BR SCT000 
     TEMPO 2500/2508 1200 BR BKN000 BR BKN000 
     BECMG 2507/2708 30008KT 8000 HZ SCT030 QNH2988INS TX17/2412Z TN14/2504Z LIMITED METWATCH 2418 TIL 2503 COR 241520
       
ORBI 241730Z 28005KT 9999 FEW030 17/10 Q1013
TAF ORBI 241600Z 2418/2518 32006KT 8000 NSC 
       
ORER 241700Z 07006KT 9999 SCT040 14/06 Q1016 NOSIG
TAF ORER 241600Z 2418/2518 14006KT 8000 -SHRA SCT030 BKN080 
       
ORMM 241700Z 080010KT 9999 FEW035 BKN100 17/16 Q1011 NOSIG
TAF ORMM 241600Z 2418/2518 03910KT 6000 TSRA FEW030 SCT035 BKN040 
     BECMG 2423/2501 2000 SCT030 BKN040
       
ORNI 241700Z 33010KT 8000 FEW040 20/09 Q1012 NOSIG
TAF ORNI 241600Z 2418/2518 30008KT 8000 SCT030 
       
ORSU 241700Z 10008KT 8000 SCT045 SCT080 10/07 Q1017
TAF ORSU 241700Z 2418/2518 12008KT 8000 SCT045 
     TEMPO 2500/2506 06010KT 5000 BR NSC 
     BECMG 2506/2506 08014KT 9999 SCT045 
     BECMG 2514/2516 32006KT
       
ORBD 241655Z 04004KT 9999 SCT190 15/12 A2991 RMK SLP131 WND DATA/ALSTG/SLP ESTMD
TAF AMD ORBD 2414/2517 30009KT 9000 HZ VCSH BKN030 BKN150 QNH2983INS WND 240V320 
     TEMPO 2411/2416 05010G15KT 5000 -SHRA VCTS OVC020CB WND 330V090 
     BECMG 2415/2416 VRB06KT 8000 HZ SCT060 BKN120 QNH2987INS 
     BECMG 2418/2419 VRB04KT 4000 BR SCT000 QNH2994INS BR SCT000 
     TEMPO 2500/2508 1200 BR BKN000 BR BKN000 
     BECMG 2507/2708 30008KT 8000 HZ SCT030 QNH2988INS TX17/2412Z TN14/2504Z LIMITED METWATCH 2418 TIL 2503 COR 241520
       
ORBI 241730Z 28005KT 9999 FEW030 17/10 Q1013
TAF ORBI 241600Z 2418/2518 32006KT 8000 NSC 
       
ORER 241700Z 07006KT 9999 SCT040 14/06 Q1016 NOSIG
TAF ORER 241600Z 2418/2518 14006KT 8000 -SHRA SCT030 BKN080 
       
ORMM 241700Z 080010KT 9999 FEW035 BKN100 17/16 Q1011 NOSIG
TAF ORMM 241600Z 2418/2518 03910KT 6000 TSRA FEW030 SCT035 BKN040 
     BECMG 2423/2501 2000 SCT030 BKN040
       
ORNI 241700Z 33010KT 8000 FEW040 20/09 Q1012 NOSIG
TAF ORNI 241600Z 2418/2518 30008KT 8000 SCT030 
       
ORSU 241700Z 10008KT 8000 SCT045 SCT080 10/07 Q1017
TAF ORSU 241700Z 2418/2518 12008KT 8000 SCT045 
     TEMPO 2500/2506 06010KT 5000 BR NSC 
     BECMG 2506/2506 08014KT 9999 SCT045 
     BECMG 2514/2516 32006KT